SCP
-0 -0 -0 -0 -0 -0 -0 -0 0 0 0 0 0 -0 -0 -0 -0 -0 0 -0 0 0 0 0 0 0 0 0 0 0 0 0 0 0 0 0 -0 -0 -0 -0 0 -0 -0
-0 -0 -0 -0 -0 -0 -0 -0 -0 -0 -0 0 0 0 0 0 0 -0 0 0 0 0 0 0 0 0 0 0 0 0 0 0 0 0 0 -0 -0 -0 -0 -0 -0 -0 -0
-0 -0 -0 -0 -0 -0 -0 -0 -0 -0 -0 -0 -0 0 0 0 0 0 0 0 0 0 0 0 0 0 0 0 0 0 0 0 0 0 0 0 -0 -0 -0 -0 -0 -0 -0
-0 -0 -0 -0 -0 -0 -0 -0 -0 -0 -0 -0 -0 -0 0 0 0 0 0 0 0 0 0 0 0 0 0 0 0 0 0 0 0 0 0 0 0 0 0 -0 -0 -0 -0
-0 -0 -0 -0 -0 -0 -0 -0 -0 -0 -0 -0 -0 -0 0 0 0 0 0 0 0 0 0 0 0 0 0 0 0 0 0 0 0 0 0 0 0 0 0 0 0 -0 -0
-0 -0 -0 -0 -0 -0 -0 -0 -0 -0 -0 -0 -0 0 0 0 0 0 0 0 0 0 0 0 0 0 0 0 0 0 0 0 0 0 0 0 -0 0 -0 -0 -0 -0 -0
-0 -0 -0 -0 -0 -0 -0 -0 -0 -0 -0 -0 0 0 0 0 0 0 0 0 0 0 0 0 0 0 0 0 0 0 0 0 0 0 0 0 0 0 -0 -0 -0 -0 -0
-0 -0 -0 -0 -0 -0 -0 -0 -0 -0 0 0 0 0 0 0 0 0 0 0 0 0 0 0 0 0 0 0 0 0 0 0 0 0 0 0 0 0 0 0 0 0 -0
-0 -0 -0 -0 -0 -0 -0 -0 0 0 0 0 0 0 0 0 0 0 0 0 0 0 0 0 0 0 0 0 0 0 0 0 0 0 0 0 0 0 0 0 0 0 0
-0 -0 -0 -0 -0 -0 -0 0 0 0 0 0 0 0 0 0 0 0 0 0 0 0 0 0 0 0 0 0 0 0 0 0 0 0 0 0 0 0 0 0 0 0 0
0 -0 -0 -0 -0 -0 -0 0 0 0 0 0 0 0 0 0 0 0 0 0 0 0 0 0 0 0 0 0 0 0 0 0 0 0 0 0 0 0 0 0 0 0 0
0 0 0 0 0 -0 0 0 0 0 0 0 0 0 0 0 0 0 0 0 0 0 0 0 0 0 0 0 0 0 0 0 0 0 0 0 0 0 0 0 0 0 0
0 0 0 0 0 0 0 0 0 0 0 0 0 0 0 0 0 0 0 0 0 0 0 0 0 0 0 0 0 0 0 0 0 0 0 0 0 0 0 0 0 0 0
0 0 0 0 0 0 0 0 0 0 0 0 0 0 0 0 0 0 0 0 0 0 0 0 0 0 0 0 0 0 0 0 0 0 0 0 0 0 0 0 0 0 0
0 0 0 0 0 0 0 0 0 0 0 0 0 0 0 0 0 0 0 0 0 0 0 0 0 0 0 0 0 0 0 0 0 0 0 0 0 0 0 0 0 0 0
0 0 0 0 0 0 0 0 0 0 0 0 0 0 0 0 0 0 0 0 0 0 0 0 0 0 0 0 0 0 0 0 0 0 0 0 0 0 0 0 0 0 0
0 0 0 0 0 0 0 0 0 0 0 0 0 0 0 0 0 0 0 0 0 0 0 0 0 0 0 0 0 0 0 0 0 0 0 0 0 0 0 0 0 0 0
0 0 0 0 0 0 0 0 0 0 0 0 0 0 0 0 0 0 0 0 0 0 0 0 0 0 0 0 0 0 0 0 0 0 0 0 0 0 0 0 0 0 0
0 0 0 0 0 0 0 0 0 0 0 0 0 0 0 0 0 0 0 0 0 0 0 0 0 0 0 0 0 0 0 0 0 0 0 0 0 0 0 0 0 0 0
0 0 0 0 0 0 0 0 0 0 0 0 0 0 0 0 0 0 0 0 0 0 0 0 0 0 0 0 0 0 0 0 0 0 0 0 0 0 0 0 0 0 0
0 0 0 0 0 0 0 0 0 0 0 0 0 0 0 0 0 0 0 0 0 0 0 0 0 0 0 0 0 0 0 0 0 0 0 0 0 0 0 0 0 0 0
0 0 0 0 0 0 0 0 0 0 0 0 0 0 0 0 0 0 0 0 0 0 0 0 0 0 0 0 0 0 0 0 0 0 0 0 0 0 0 0 0 0 0
0 0 0 0 0 0 0 0 0 0 0 0 0 0 0 0 0 0 0 0 0 0 0 0 0 0 0 0 0 0 0 0 0 0 0 0 0 0 0 0 0 0 0
0 0 0 0 0 0 0 0 0 0 0 0 0 0 0 0 0 0 0 0 0 0 0 0 0 0 0 0 0 0 0 0 0 0 0 0 0 0 0 0 0 0 0
0 0 0 0 -0 -0 -0 -0 -0 0 0 0 0 0 0 0 0 0 0 0 0 0 0 0 0 0 0 0 0 0 0 0 0 0 0 0 0 0 0 0 0 0 0
0 0 0 0 0 0 -0 -0 -0 -0 0 0 0 0 0 0 0 0 0 0 0 0 0 0 0 0 0 0 0 0 0 0 0 0 0 0 0 0 0 0 0 0 0
Wind_Speed_500mb
50 46 44 42 41 38 35 35 33 30 26 26 27 28 25 22 18 11 11 10 8 9 12 12 10 9 9 8 6 1 1 2 2 4 6 7 9 8 9 11 14 13 14
50 47 46 43 42 39 37 34 33 31 30 27 25 24 21 18 16 13 13 13 13 16 17 12 6 8 9 7 4 2 1 1 1 3 5 6 9 6 6 7 9 11 11
40 46 47 45 40 40 38 37 34 32 30 28 26 23 22 22 19 19 19 19 19 19 18 13 11 10 11 9 6 5 4 3 2 2 4 9 5 6 4 3 2 5 7
35 44 46 47 42 39 37 38 38 35 33 29 27 25 25 24 23 23 21 20 21 22 18 17 15 14 14 12 11 10 9 6 5 4 5 8 7 7 9 10 8 5 2
32 40 42 44 45 40 38 38 36 32 28 25 25 26 28 20 21 20 19 22 25 23 20 19 16 17 15 13 11 11 11 10 10 8 9 9 7 7 10 9 13 12 11
31 38 41 42 45 45 43 41 37 33 29 27 29 35 29 24 21 21 24 26 25 23 21 19 15 10 8 6 6 6 8 10 12 14 13 11 18 11 11 17 13 13 13
30 36 40 41 44 47 45 43 39 38 36 38 40 30 24 25 22 22 24 23 22 21 19 15 9 7 5 5 4 3 5 6 9 14 16 13 14 18 17 19 13 12 13
31 36 39 42 44 45 44 43 41 42 43 43 37 28 26 25 24 23 23 22 20 20 17 14 11 8 7 7 6 5 4 5 8 12 16 21 20 24 25 23 18 17 17
36 39 40 44 46 44 44 46 50 48 46 42 35 31 29 27 24 24 23 21 19 18 16 15 13 11 10 9 10 9 7 6 7 10 15 20 22 23 25 23 23 24 24
38 40 45 48 50 51 50 51 52 49 42 41 37 32 29 28 27 27 25 24 22 21 19 17 14 13 11 10 10 9 9 9 9 10 13 16 19 24 25 24 24 26 25
41 45 48 52 55 57 56 57 58 55 49 44 39 37 34 34 32 31 30 29 28 26 23 20 17 15 13 11 10 9 9 9 11 12 15 16 19 23 23 23 24 24 23
48 49 51 53 56 59 61 60 59 59 55 50 45 44 40 38 36 35 36 35 33 31 27 23 20 18 15 12 11 10 10 9 11 13 14 15 18 20 20 21 21 21 21
49 54 54 56 59 62 63 63 66 65 61 57 53 51 46 43 42 42 43 41 39 35 32 27 25 22 19 16 14 12 11 11 11 12 13 15 17 20 20 21 23 22 21
54 54 58 61 62 63 66 67 68 69 67 65 61 58 54 52 51 50 49 46 43 41 37 34 30 27 23 20 17 14 12 11 11 11 11 13 16 18 20 23 23 23 19
57 58 62 64 66 67 69 69 73 74 72 69 67 65 62 61 58 56 55 52 50 46 41 36 32 28 24 19 15 12 11 9 9 9 10 12 15 17 18 19 19 11 19
52 55 59 67 67 72 73 74 77 77 77 75 75 71 69 68 65 63 61 59 56 51 47 42 37 32 27 22 18 14 13 12 11 10 10 11 14 19 21 14 15 19 20
43 44 57 60 69 77 78 79 82 81 83 83 79 77 76 75 71 68 67 65 61 57 52 49 44 38 33 27 22 19 17 16 14 14 13 13 14 18 21 23 24 20 25
63 53 44 54 62 71 79 83 87 89 88 89 88 84 84 82 79 76 75 71 67 63 60 55 50 44 38 32 28 24 22 19 18 17 16 16 19 23 30 33 39 35 32
46 45 51 53 57 63 74 83 90 94 96 96 95 94 92 88 86 84 82 78 75 72 69 63 57 52 46 39 34 29 26 24 23 22 21 21 23 26 27 25 25 23 22
25 29 37 44 49 56 65 78 90 97 102 103 104 102 97 95 93 90 88 85 82 81 77 71 65 60 52 47 41 37 32 29 26 26 27 27 29 29 28 30 30 29 27
14 14 18 26 31 44 57 73 85 98 102 108 109 107 105 102 101 98 96 93 91 88 81 76 73 66 60 54 45 39 37 36 34 33 31 34 34 33 32 31 29 26 25
45 38 28 23 27 35 44 55 68 78 89 99 105 112 112 110 108 104 102 100 98 95 90 86 82 76 71 64 54 38 26 33 40 41 42 41 39 35 32 30 27 25 25
47 45 41 35 29 30 35 43 53 65 79 86 93 107 117 116 115 110 108 106 103 100 98 95 90 85 80 73 69 34 17 17 33 46 47 47 43 38 35 31 27 25 25
50 46 46 43 42 33 31 42 53 63 69 76 84 90 99 111 118 118 113 111 109 105 104 101 96 92 88 82 75 73 46 22 17 19 51 52 50 48 45 38 31 29 28
47 48 47 47 48 46 42 32 40 55 62 60 59 78 84 91 97 116 118 117 117 113 111 108 105 100 96 90 84 82 76 59 39 25 21 52 62 59 54 48 38 33 32
51 46 46 45 49 46 42 37 31 38 46 52 63 72 81 81 85 90 111 124 124 119 118 115 109 104 100 96 89 86 84 79 74 58 45 35 50 59 64 57 51 44 40
Wind_Direction_500mb
191 191 190 186 178 177 182 185 190 191 195 192 193 198 199 202 212 207 203 216 232 253 260 272 299 296 300 334 13 313 312 298 85 81 72 80 85 79 80 84 89 76 82
194 192 193 193 187 186 187 189 192 193 194 200 204 208 209 207 214 223 242 250 259 264 274 299 298 296 309 328 339 319 265 221 197 145 123 108 122 127 110 104 83 82 82
192 196 196 199 196 195 195 194 196 199 203 207 216 220 225 233 232 237 241 247 255 259 269 283 281 279 281 282 277 265 251 250 244 191 153 120 149 179 184 193 135 79 82
188 198 199 201 200 201 201 199 201 204 208 214 220 226 226 233 237 238 233 237 241 253 265 276 280 281 274 266 255 244 243 239 246 246 198 161 132 224 238 246 253 271 282
191 198 202 202 203 200 204 203 206 207 211 218 220 227 233 230 219 225 231 239 245 257 263 266 271 273 273 271 256 245 239 232 229 224 215 189 138 207 241 244 247 247 258
198 197 201 203 204 203 207 211 208 203 209 213 218 224 236 236 223 229 238 246 255 261 266 273 273 266 254 256 253 249 239 223 214 217 212 171 182 214 243 247 253 260 256
209 204 203 205 205 209 211 211 211 207 207 212 223 233 233 242 244 238 242 241 245 256 263 263 259 263 280 265 253 239 212 209 212 210 211 170 204 219 235 257 276 281 277
216 212 210 209 209 210 208 207 202 204 210 210 225 232 236 242 243 242 242 241 239 235 227 224 224 228 233 255 279 268 249 222 209 211 214 216 231 236 250 263 276 278 287
214 215 216 214 214 213 209 204 206 213 217 223 229 230 231 237 238 241 245 242 232 220 214 212 216 223 233 239 247 251 248 246 240 222 219 230 237 245 254 262 270 275 276
222 221 218 217 217 217 215 215 220 229 233 232 233 234 232 232 232 232 231 229 221 217 219 222 228 235 238 240 242 248 250 248 250 247 243 250 252 252 255 262 268 271 273
233 228 224 221 220 220 221 222 225 233 235 234 233 231 229 230 229 228 221 218 219 219 224 229 235 243 245 241 234 236 243 245 244 245 248 252 255 264 269 268 268 270 273
242 238 232 228 225 224 224 226 229 234 236 233 231 232 229 229 228 224 219 217 218 221 224 229 233 239 245 249 257 262 265 266 264 261 258 254 254 257 262 267 265 266 271
252 242 240 236 231 229 229 226 228 233 234 236 234 232 231 231 229 224 222 220 219 219 224 226 227 228 231 234 239 245 255 264 268 268 268 264 266 268 268 263 267 270 272
255 249 242 238 236 235 233 231 233 233 234 234 234 232 231 229 229 227 226 225 223 222 224 225 225 223 220 220 221 227 233 243 255 261 263 259 256 259 263 270 270 273 275
256 249 246 241 238 237 236 235 235 235 236 236 235 233 230 231 232 230 228 226 225 225 227 228 228 228 227 225 226 233 243 249 257 263 262 252 246 246 257 257 258 237 231
265 256 248 246 243 242 240 239 239 239 239 237 236 235 232 232 231 230 229 228 227 227 226 226 226 229 231 233 236 243 253 262 270 273 268 254 240 229 227 225 164 214 230
289 275 256 249 245 244 244 241 241 241 240 241 240 237 234 234 233 232 231 229 229 228 227 226 227 228 229 231 234 238 244 249 254 260 253 239 225 227 214 191 177 199 238
279 276 266 254 249 246 246 245 244 243 242 242 241 239 236 234 233 233 232 231 230 229 228 227 227 227 228 230 233 237 242 247 253 253 250 234 214 205 211 202 178 211 246
278 272 266 263 257 252 250 247 247 246 245 244 243 241 239 236 234 233 233 232 230 229 228 227 227 228 227 229 230 233 237 241 242 240 237 228 216 214 214 222 233 243 248
289 275 267 262 258 254 253 251 249 248 247 245 243 243 242 239 237 235 234 233 231 229 227 226 226 226 225 226 226 228 232 235 234 232 227 222 217 215 216 217 221 228 238
334 308 281 270 263 255 255 252 249 249 248 246 245 245 242 240 238 236 235 233 231 231 230 229 227 224 222 222 220 221 226 227 228 227 229 226 224 223 221 222 228 235 237
39 30 10 341 305 287 273 265 259 258 257 255 250 246 243 241 240 238 237 235 233 230 228 227 227 224 220 221 216 217 220 224 224 223 223 223 221 220 222 224 227 236 248
45 39 31 19 1 334 299 277 267 258 259 256 254 254 250 245 242 240 239 238 235 234 231 230 227 226 225 220 216 205 197 216 215 224 220 213 214 219 222 220 229 234 238
37 26 21 15 12 359 332 299 280 273 268 267 261 260 257 251 245 242 239 238 237 235 234 233 231 228 225 225 217 218 221 212 186 209 220 220 220 220 219 224 232 239 243
32 22 18 14 12 8 356 336 300 288 283 275 271 267 263 262 257 246 241 239 237 236 235 234 232 229 228 227 225 222 222 224 220 207 207 224 227 225 225 227 234 245 241
32 27 21 17 10 4 2 360 341 312 299 286 278 275 275 270 265 256 246 241 239 237 235 235 234 231 232 230 228 231 230 225 224 218 220 218 227 229 226 232 231 237 236
Wind_Speed_850mb
50 46 44 42 41 38 35 35 33 30 26 26 27 28 25 22 18 11 11 10 8 9 12 12 10 9 9 8 6 1 1 2 2 4 6 7 9 8 9 11 14 13 14
50 47 46 43 42 39 37 34 33 31 30 27 25 24 21 18 16 13 13 13 13 16 17 12 6 8 9 7 4 2 1 1 1 3 5 6 9 6 6 7 9 11 11
40 46 47 45 40 40 38 37 34 32 30 28 26 23 22 22 19 19 19 19 19 19 18 13 11 10 11 9 6 5 4 3 2 2 4 9 5 6 4 3 2 5 7
35 44 46 47 42 39 37 38 38 35 33 29 27 25 25 24 23 23 21 20 21 22 18 17 15 14 14 12 11 10 9 6 5 4 5 8 7 7 9 10 8 5 2
32 40 42 44 45 40 38 38 36 32 28 25 25 26 28 20 21 20 19 22 25 23 20 19 16 17 15 13 11 11 11 10 10 8 9 9 7 7 10 9 13 12 11
31 38 41 42 45 45 43 41 37 33 29 27 29 35 29 24 21 21 24 26 25 23 21 19 15 10 8 6 6 6 8 10 12 14 13 11 18 11 11 17 13 13 13
30 36 40 41 44 47 45 43 39 38 36 38 40 30 24 25 22 22 24 23 22 21 19 15 9 7 5 5 4 3 5 6 9 14 16 13 14 18 17 19 13 12 13
31 36 39 42 44 45 44 43 41 42 43 43 37 28 26 25 24 23 23 22 20 20 17 14 11 8 7 7 6 5 4 5 8 12 16 21 20 24 25 23 18 17 17
36 39 40 44 46 44 44 46 50 48 46 42 35 31 29 27 24 24 23 21 19 18 16 15 13 11 10 9 10 9 7 6 7 10 15 20 22 23 25 23 23 24 24
38 40 45 48 50 51 50 51 52 49 42 41 37 32 29 28 27 27 25 24 22 21 19 17 14 13 11 10 10 9 9 9 9 10 13 16 19 24 25 24 24 26 25
41 45 48 52 55 57 56 57 58 55 49 44 39 37 34 34 32 31 30 29 28 26 23 20 17 15 13 11 10 9 9 9 11 12 15 16 19 23 23 23 24 24 23
48 49 51 53 56 59 61 60 59 59 55 50 45 44 40 38 36 35 36 35 33 31 27 23 20 18 15 12 11 10 10 9 11 13 14 15 18 20 20 21 21 21 21
49 54 54 56 59 62 63 63 66 65 61 57 53 51 46 43 42 42 43 41 39 35 32 27 25 22 19 16 14 12 11 11 11 12 13 15 17 20 20 21 23 22 21
54 54 58 61 62 63 66 67 68 69 67 65 61 58 54 52 51 50 49 46 43 41 37 34 30 27 23 20 17 14 12 11 11 11 11 13 16 18 20 23 23 23 19
57 58 62 64 66 67 69 69 73 74 72 69 67 65 62 61 58 56 55 52 50 46 41 36 32 28 24 19 15 12 11 9 9 9 10 12 15 17 18 19 19 11 19
52 55 59 67 67 72 73 74 77 77 77 75 75 71 69 68 65 63 61 59 56 51 47 42 37 32 27 22 18 14 13 12 11 10 10 11 14 19 21 14 15 19 20
43 44 57 60 69 77 78 79 82 81 83 83 79 77 76 75 71 68 67 65 61 57 52 49 44 38 33 27 22 19 17 16 14 14 13 13 14 18 21 23 24 20 25
63 53 44 54 62 71 79 83 87 89 88 89 88 84 84 82 79 76 75 71 67 63 60 55 50 44 38 32 28 24 22 19 18 17 16 16 19 23 30 33 39 35 32
46 45 51 53 57 63 74 83 90 94 96 96 95 94 92 88 86 84 82 78 75 72 69 63 57 52 46 39 34 29 26 24 23 22 21 21 23 26 27 25 25 23 22
25 29 37 44 49 56 65 78 90 97 102 103 104 102 97 95 93 90 88 85 82 81 77 71 65 60 52 47 41 37 32 29 26 26 27 27 29 29 28 30 30 29 27
14 14 18 26 31 44 57 73 85 98 102 108 109 107 105 102 101 98 96 93 91 88 81 76 73 66 60 54 45 39 37 36 34 33 31 34 34 33 32 31 29 26 25
45 38 28 23 27 35 44 55 68 78 89 99 105 112 112 110 108 104 102 100 98 95 90 86 82 76 71 64 54 38 26 33 40 41 42 41 39 35 32 30 27 25 25
47 45 41 35 29 30 35 43 53 65 79 86 93 107 117 116 115 110 108 106 103 100 98 95 90 85 80 73 69 34 17 17 33 46 47 47 43 38 35 31 27 25 25
50 46 46 43 42 33 31 42 53 63 69 76 84 90 99 111 118 118 113 111 109 105 104 101 96 92 88 82 75 73 46 22 17 19 51 52 50 48 45 38 31 29 28
47 48 47 47 48 46 42 32 40 55 62 60 59 78 84 91 97 116 118 117 117 113 111 108 105 100 96 90 84 82 76 59 39 25 21 52 62 59 54 48 38 33 32
51 46 46 45 49 46 42 37 31 38 46 52 63 72 81 81 85 90 111 124 124 119 118 115 109 104 100 96 89 86 84 79 74 58 45 35 50 59 64 57 51 44 40
Wind_Direction_850mb
191 191 190 186 178 177 182 185 190 191 195 192 193 198 199 202 212 207 203 216 232 253 260 272 299 296 300 334 13 313 312 298 85 81 72 80 85 79 80 84 89 76 82
194 192 193 193 187 186 187 189 192 193 194 200 204 208 209 207 214 223 242 250 259 264 274 299 298 296 309 328 339 319 265 221 197 145 123 108 122 127 110 104 83 82 82
192 196 196 199 196 195 195 194 196 199 203 207 216 220 225 233 232 237 241 247 255 259 269 283 281 279 281 282 277 265 251 250 244 191 153 120 149 179 184 193 135 79 82
188 198 199 201 200 201 201 199 201 204 208 214 220 226 226 233 237 238 233 237 241 253 265 276 280 281 274 266 255 244 243 239 246 246 198 161 132 224 238 246 253 271 282
191 198 202 202 203 200 204 203 206 207 211 218 220 227 233 230 219 225 231 239 245 257 263 266 271 273 273 271 256 245 239 232 229 224 215 189 138 207 241 244 247 247 258
198 197 201 203 204 203 207 211 208 203 209 213 218 224 236 236 223 229 238 246 255 261 266 273 273 266 254 256 253 249 239 223 214 217 212 171 182 214 243 247 253 260 256
209 204 203 205 205 209 211 211 211 207 207 212 223 233 233 242 244 238 242 241 245 256 263 263 259 263 280 265 253 239 212 209 212 210 211 170 204 219 235 257 276 281 277
216 212 210 209 209 210 208 207 202 204 210 210 225 232 236 242 243 242 242 241 239 235 227 224 224 228 233 255 279 268 249 222 209 211 214 216 231 236 250 263 276 278 287
214 215 216 214 214 213 209 204 206 213 217 223 229 230 231 237 238 241 245 242 232 220 214 212 216 223 233 239 247 251 248 246 240 222 219 230 237 245 254 262 270 275 276
222 221 218 217 217 217 215 215 220 229 233 232 233 234 232 232 232 232 231 229 221 217 219 222 228 235 238 240 242 248 250 248 250 247 243 250 252 252 255 262 268 271 273
233 228 224 221 220 220 221 222 225 233 235 234 233 231 229 230 229 228 221 218 219 219 224 229 235 243 245 241 234 236 243 245 244 245 248 252 255 264 269 268 268 270 273
242 238 232 228 225 224 224 226 229 234 236 233 231 232 229 229 228 224 219 217 218 221 224 229 233 239 245 249 257 262 265 266 264 261 258 254 254 257 262 267 265 266 271
252 242 240 236 231 229 229 226 228 233 234 236 234 232 231 231 229 224 222 220 219 219 224 226 227 228 231 234 239 245 255 264 268 268 268 264 266 268 268 263 267 270 272
255 249 242 238 236 235 233 231 233 233 234 234 234 232 231 229 229 227 226 225 223 222 224 225 225 223 220 220 221 227 233 243 255 261 263 259 256 259 263 270 270 273 275
256 249 246 241 238 237 236 235 235 235 236 236 235 233 230 231 232 230 228 226 225 225 227 228 228 228 227 225 226 233 243 249 257 263 262 252 246 246 257 257 258 237 231
265 256 248 246 243 242 240 239 239 239 239 237 236 235 232 232 231 230 229 228 227 227 226 226 226 229 231 233 236 243 253 262 270 273 268 254 240 229 227 225 164 214 230
289 275 256 249 245 244 244 241 241 241 240 241 240 237 234 234 233 232 231 229 229 228 227 226 227 228 229 231 234 238 244 249 254 260 253 239 225 227 214 191 177 199 238
279 276 266 254 249 246 246 245 244 243 242 242 241 239 236 234 233 233 232 231 230 229 228 227 227 227 228 230 233 237 242 247 253 253 250 234 214 205 211 202 178 211 246
278 272 266 263 257 252 250 247 247 246 245 244 243 241 239 236 234 233 233 232 230 229 228 227 227 228 227 229 230 233 237 241 242 240 237 228 216 214 214 222 233 243 248
289 275 267 262 258 254 253 251 249 248 247 245 243 243 242 239 237 235 234 233 231 229 227 226 226 226 225 226 226 228 232 235 234 232 227 222 217 215 216 217 221 228 238
334 308 281 270 263 255 255 252 249 249 248 246 245 245 242 240 238 236 235 233 231 231 230 229 227 224 222 222 220 221 226 227 228 227 229 226 224 223 221 222 228 235 237
39 30 10 341 305 287 273 265 259 258 257 255 250 246 243 241 240 238 237 235 233 230 228 227 227 224 220 221 216 217 220 224 224 223 223 223 221 220 222 224 227 236 248
45 39 31 19 1 334 299 277 267 258 259 256 254 254 250 245 242 240 239 238 235 234 231 230 227 226 225 220 216 205 197 216 215 224 220 213 214 219 222 220 229 234 238
37 26 21 15 12 359 332 299 280 273 268 267 261 260 257 251 245 242 239 238 237 235 234 233 231 228 225 225 217 218 221 212 186 209 220 220 220 220 219 224 232 239 243
32 22 18 14 12 8 356 336 300 288 283 275 271 267 263 262 257 246 241 239 237 236 235 234 232 229 228 227 225 222 222 224 220 207 207 224 227 225 225 227 234 245 241
32 27 21 17 10 4 2 360 341 312 299 286 278 275 275 270 265 256 246 241 239 237 235 235 234 231 232 230 228 231 230 225 224 218 220 218 227 229 226 232 231 237 236